Temp
72 70 70 70 70 69 69 69 70 70 71 72 72 72 73 72 71 71 68 69 69 68
69 68 67 68 70 70 70 72 71 72 72 73 70 73 72 70 69 69 69 68 69 69
68 68 67 67 68 69 69 70 70 73 73 73 72 72 72 71 70 68 68 68 68 68
68 69 69 68 70 70 70 70 73 74 73 71 69 70 71 70 70 70 67 67 68 68
66 68 69 71 70 71 71 72 71 72 69 69 68 67 67 66 67 65 64 67 65 65
67 68 70 71 71 72 70 69 70 69 68 68 68 67 67 66 64 63 62 62 62 62
69 70 71 70 70 70 70 69 68 68 68 68 66 66 67 67 65 64 62 61 61 61
71 72 72 70 70 70 70 70 70 69 67 67 67 67 64 67 65 63 62 62 63 62
71 72 71 71 70 70 70 70 70 67 66 65 68 61 63 66 65 64 63 61 61 63
70 70 70 70 70 70 71 71 68 66 64 62 61 62 60 63 65 63 61 61 61 64
70 69 68 67 68 67 67 67 67 67 65 62 61 62 57 60 64 61 60 60 60 58
70 68 67 67 66 66 66 66 65 66 64 63 61 59 56 59 63 61 59 58 58 59
70 68 67 67 67 67 66 66 66 65 65 63 61 56 55 57 61 59 58 56 55 58
70 68 68 68 67 67 65 65 65 66 64 63 61 56 57 55 59 61 58 57 55 54
MSLP
1014.07 1014.33 1014.56 1014.58 1015.14 1015.58 1015.73 1015.60 1015.50 1015.52 1015.30 1015.51 1015.48 1015.49 1015.34 1015.59 1015.53 1015.32 1015.14 1015.14 1014.82 1014.64
1014.73 1014.81 1015.22 1015.68 1015.51 1015.84 1015.85 1015.66 1015.47 1015.55 1015.67 1015.69 1015.63 1015.48 1015.69 1015.64 1015.50 1015.39 1015.41 1015.24 1014.76 1014.49
1014.83 1015.39 1015.31 1015.73 1015.96 1016.05 1016.17 1015.86 1015.70 1015.64 1015.72 1015.77 1015.80 1015.79 1015.78 1015.91 1015.81 1015.78 1015.85 1015.58 1015.04 1014.58
1014.98 1015.13 1015.82 1015.81 1016.05 1016.15 1016.23 1016.08 1015.82 1015.77 1015.91 1016.16 1016.22 1016.08 1016.12 1016.23 1016.22 1016.26 1016.16 1015.84 1015.64 1015.22
1015.12 1015.13 1015.54 1015.81 1016.11 1016.25 1016.24 1016.22 1016.12 1016.10 1016.29 1016.46 1016.60 1016.49 1016.57 1016.81 1016.77 1016.78 1016.56 1016.41 1016.30 1016.05
1015.20 1015.34 1015.53 1015.83 1015.98 1016.19 1016.42 1016.42 1016.38 1016.48 1016.65 1016.74 1016.92 1016.94 1017.00 1017.26 1017.37 1017.24 1017.09 1017.04 1016.97 1016.75
1015.09 1015.23 1015.42 1015.73 1016.05 1016.18 1016.44 1016.61 1016.71 1016.70 1016.77 1017.03 1017.24 1017.33 1017.38 1017.54 1017.72 1017.76 1017.73 1017.64 1017.55 1017.20
1014.89 1015.12 1015.39 1015.73 1015.86 1015.97 1016.49 1016.60 1016.65 1016.79 1017.11 1017.35 1017.60 1017.84 1017.79 1017.81 1018.02 1018.02 1018.20 1018.24 1018.07 1017.82
1014.52 1014.77 1015.03 1015.34 1015.70 1016.12 1016.34 1016.40 1016.55 1016.99 1017.28 1017.64 1017.95 1018.07 1018.00 1018.02 1018.15 1018.33 1018.64 1018.72 1018.63 1018.40
1014.44 1014.94 1015.44 1015.82 1015.75 1016.08 1016.27 1016.22 1016.60 1017.10 1017.35 1017.83 1018.11 1018.28 1018.29 1018.27 1018.42 1018.70 1018.79 1018.88 1019.05 1018.96
1014.64 1015.03 1015.38 1015.61 1015.84 1016.09 1016.20 1016.71 1016.90 1017.24 1017.45 1017.90 1018.31 1018.34 1018.46 1018.55 1018.66 1018.95 1019.10 1019.13 1019.27 1019.46
1014.42 1014.96 1015.41 1015.63 1015.84 1016.07 1016.42 1016.72 1016.95 1017.07 1017.66 1017.95 1018.35 1018.53 1018.67 1018.83 1018.99 1019.10 1019.41 1019.46 1019.62 1019.75
1014.23 1014.80 1015.14 1015.28 1015.72 1015.90 1016.10 1016.49 1016.88 1017.15 1017.45 1017.82 1018.19 1018.57 1018.65 1018.86 1019.06 1019.25 1019.59 1019.84 1019.85 1019.96
1013.80 1014.28 1014.70 1015.03 1015.40 1015.77 1016.07 1016.35 1016.76 1016.93 1017.19 1017.58 1017.99 1018.32 1018.56 1018.66 1018.72 1018.87 1019.41 1019.80 1020.10 1020.10
Wind_Speed
5 4 6 7 4 4 3 3 3 3 5 5 5 4 4 2 1 2 4 5 3 2
6 9 8 7 5 3 2 2 5 4 5 5 4 5 4 3 5 5 4 5 5 2
5 6 7 4 3 4 2 3 4 5 5 5 6 5 5 6 6 6 5 4 6 6
7 9 1 6 5 5 2 2 3 4 5 5 5 6 6 5 7 8 7 7 8 7
4 5 2 6 6 4 2 4 6 6 6 6 5 6 6 6 6 6 7 8 7 8
6 3 3 7 6 4 5 5 6 6 6 6 4 5 5 7 6 7 7 6 6 6
5 6 6 6 5 6 5 5 4 3 5 7 7 6 4 7 6 6 6 6 6 6
6 6 7 6 6 6 5 5 4 4 7 7 7 5 5 6 6 6 6 5 6 7
6 7 7 7 6 6 6 5 3 7 7 7 4 7 9 5 6 7 5 5 3 5
7 7 6 4 6 4 3 4 4 6 7 6 5 8 9 10 5 6 6 6 5 6
6 6 6 6 6 4 4 1 2 6 6 6 3 8 9 9 5 6 6 6 6 6
7 7 6 6 5 5 5 3 2 5 5 6 4 7 8 6 3 6 6 6 6 6
8 8 8 7 6 4 5 5 4 5 7 7 6 6 6 4 1 6 4 4 5 8
7 8 8 6 5 5 5 5 5 5 6 6 6 5 4 3 2 5 5 4 2 2
Wind_Direction
22 39 34 52 29 65 91 113 93 78 94 77 48 36 25 357 3 352 20 349 345 290
58 77 59 22 48 65 54 79 53 87 96 94 72 52 14 357 17 25 14 352 356 346
62 87 106 107 344 103 79 59 71 90 92 79 64 41 34 30 24 45 20 4 4 14
121 107 168 180 143 103 85 111 98 89 92 85 73 61 44 44 41 43 25 17 14 21
127 137 174 108 116 112 100 52 62 68 78 86 93 83 74 56 51 48 37 31 19 14
145 138 123 114 115 101 81 77 71 76 76 70 96 106 97 85 67 49 42 36 30 14
181 159 128 125 129 123 121 110 99 113 103 79 64 45 47 102 92 78 59 47 38 34
170 159 145 146 152 134 138 136 143 97 82 78 64 37 28 87 111 104 84 61 56 44
163 157 146 148 145 141 139 145 155 106 101 86 77 23 22 77 70 66 97 103 66 54
152 143 120 93 105 89 135 134 110 125 112 109 99 49 27 39 84 89 80 65 80 55
148 138 133 133 138 137 109 345 96 134 127 116 101 65 31 13 107 83 67 65 86 84
155 154 156 181 181 161 173 147 135 141 139 133 136 83 52 24 74 105 89 70 54 91
160 167 175 191 187 177 161 164 167 155 154 159 150 103 75 50 108 124 119 84 77 73
168 165 176 180 167 160 164 157 174 155 156 148 158 148 96 12 216 161 146 139 127 106